Location: Weymouth Pines Observatory
(42.9326°N, 81.3883°W)
Time: 15:44:14
(UTC-04:00)

Daily predictions for brighter satellites

Satellite Brightness Start Highest point End
(mag) Time Altitude Azimuth Time Altitude Azimuth Time Altitude Azimuth
Resurs 01 Rocket 1.8 20:38:33 10° SSE 20:42:55 59° ENE 20:47:19 10° N
Cosmos 2151 Rocket 3.5 20:39:26 10° S 20:43:46 67° E 20:48:10 10° NNE
Cosmos 2263 Rocket 2.3 20:39:26 10° NNW 20:45:07 62° ENE 20:50:43 10° SE
Envisat 3.4 20:42:31 10° SE 20:47:21 47° ENE 20:52:13 10° N
Cosmos 1741 Rocket 4.0 20:42:46 10° NNW 20:48:01 71° ENE 20:53:16 10° SSE
Abrixas 4.3 20:47:35 10° SSE 20:48:14 11° SE 20:48:54 10° ESE
Cosmos 1602 3.7 20:44:54 10° S 20:48:43 89° SE 20:52:35 10° N
Cosmos 1844 Rocket 4.4 20:46:43 10° N 20:50:38 19° NE 20:54:33 10° E
Cosmos 1536 Rocket 3.5 20:46:30 10° N 20:50:50 69° E 20:55:09 10° SSE
Cosmos 2322 Rocket 2.2 20:47:29 10° SSW 20:53:11 85° ESE 20:58:55 10° NNE
Lacrosse 5 1.9 20:48:56 10° SSW 20:53:56 64° SE 20:58:58 10° NE
Atlas Centaur 2 4.2 20:48:22 10° WSW 20:55:20 29° SSW 21:01:47 10° SE
ATLAS 2AS CENTAUR R/B 3.1 20:52:13 10° SSW 20:59:46 64° ESE 21:07:46 10° NE
Helios 1B rocket 3.7 21:02:04 10° NE 21:05:11 20° E 21:08:10 10° SE
SL-16 R/B 2.5 21:01:11 10° SSW 21:06:50 76° WNW 21:12:33 10° NNE
H-2A R/B 4.0 21:07:07 10° ENE 21:08:42 11° ENE 21:10:18 10° NE
Cosmos 2219 Rocket 3.9 21:08:26 12° E 21:08:46 12° E 21:10:37 10° ENE
NOSS 2-3 (E) 4.1 21:05:31 10° SW 21:10:13 80° NW 21:15:46 10° NE
Meteor 1-11 Rocket 3.9 21:08:41 10° SSW 21:14:30 82° W 21:20:13 10° N
Cosmos 1110 Rocket 4.1 21:11:26 10° S 21:16:24 50° ESE 21:21:25 10° NNE
Cosmos 2322 3.9 21:14:57 10° S 21:20:19 47° ESE 21:25:44 10° NE
Delta 2 Rocket 4.4 21:17:00 10° SW 21:20:24 28° S 21:22:33 19° SE
Cosmos 1500 4.4 21:19:37 18° ESE 21:21:09 23° E 21:24:14 10° NE
SeaSat 1 2.6 21:16:50 10° NE 21:21:38 50° ESE 21:26:24 10° S
Cosmos 2360 Rocket 2.2 21:18:56 10° S 21:24:29 63° ESE 21:30:03 10° NNE
Meteor 1-23 Rocket 4.1 21:19:36 10° N 21:25:12 80° E 21:30:48 10° SSE
Abrixas rocket 3.3 21:22:16 10° WNW 21:25:22 38° NNE 21:27:31 17° ENE
Okean 2 3.7 21:22:51 10° N 21:26:47 44° ENE 21:29:21 19° SE
Cosmos 405 4.3 21:27:10 21° E 21:27:28 21° E 21:30:15 10° NE
Cosmos 1331 Rocket 4.0 21:22:26 10° S 21:27:29 56° ESE 21:32:36 10° NNE
Cosmos 1455 Rocket 4.5 21:32:44 19° E 21:33:07 19° E 21:36:18 10° NE
COSMOS 2428 3.3 21:28:26 10° SSE 21:33:29 33° ESE 21:38:32 10° NE
Cosmos 1975 3.9 21:33:35 23° ESE 21:34:09 24° E 21:37:22 10° NE
Cosmos 220 Rocket 4.4 21:33:56 10° NNW 21:38:13 63° WSW 21:42:04 13° S
CZ-4B DEB 2.9 21:42:43 41° E 21:43:01 43° ENE 21:45:46 10° N
Meteor 1-5 Rocket 4.3 21:40:53 10° SSW 21:46:11 73° WNW 21:51:30 10° N
NOAA 11 4.3 21:42:55 22° SE 21:46:26 57° ENE 21:51:49 10° N
Cosmos 2333 Rocket 3.5 21:47:12 20° E 21:47:12 20° E 21:50:31 10° NE
Cosmos 1025 Rocket 2.9 21:43:17 10° N 21:47:35 89° W 21:50:37 19° S
USA 186 4.4 21:48:16 10° SSW 21:50:55 21° W 21:53:33 10° NW
Cosmos 1536 4.4 21:47:38 10° SW 21:51:25 37° WNW 21:55:13 10° N
Cosmos 2333 4.5 21:46:33 10° S 21:51:51 43° ESE 21:57:07 10° NE
NOSS 3-2 (A) 4.3 21:45:47 10° NNW 21:53:03 54° NE 21:57:47 25° ESE
Okean 1 Rocket 3.7 21:49:14 10° SSW 21:53:31 55° W 21:57:50 10° N
Cosmos 1939 Rocket 3.8 21:51:36 11° S 21:55:18 45° W 21:59:06 10° NNW
USA 238 DEB 3.8 21:49:33 10° NW 21:56:42 88° ENE 22:01:04 26° SE
USA 238 3.8 21:49:39 10° NW 21:56:48 87° ENE 22:01:09 26° SE
Tiangong 1 3.4 21:56:53 10° WSW 21:58:00 12° SW 21:58:00 12° SW
Cosmos 2237 Rocket 4.0 22:00:25 14° ENE 22:00:25 14° ENE 22:01:40 10° ENE
Cosmos 1244 Rocket 4.4 21:54:01 10° S 22:00:07 70° E 22:06:13 10° NNE
Cosmos 1437 Rocket 4.3 22:01:26 22° ENE 22:01:26 22° ENE 22:03:32 10° NE
Helios 1A 3.3 22:01:08 22° S 22:03:47 64° WSW 22:08:02 10° NNW
ATLAS 3B R/B 2.7 21:59:31 10° NW 22:06:13 72° WSW 22:09:58 27° SSE
Cosmos 1238 Rocket 4.0 22:00:04 10° N 22:06:47 71° E 22:10:05 29° SSE
SL-8 R/B 3.7 22:02:59 10° WNW 22:07:46 71° SSW 22:09:13 43° SE
Cosmos 1818 3.5 22:03:05 10° SSW 22:08:25 62° ESE 22:13:49 10° NE
ERS-1 Rocket 2.9 22:06:57 33° SSE 22:09:15 80° ENE 22:14:18 10° NNW
SPOT 1/Viking Rocket 4.3 22:08:48 33° E 22:10:00 37° ENE 22:14:46 10° N
YAOGAN 6 3.9 22:10:08 19° SSW 22:12:10 35° W 22:15:27 10° NNW
Cosmos 1066 Rocket 4.1 22:07:55 10° N 22:13:22 71° E 22:15:33 38° SSE
Okean 1-7 Rocket 4.4 22:09:29 10° NNW 22:13:51 49° W 22:16:59 18° SSW
ARGOS 3.1 22:12:31 39° SE 22:14:28 65° ENE 22:19:48 10° N
Molniya-1 3.7 22:12:42 10° NW 22:15:36 87° SW 22:15:39 86° S
SL-08 RB Rocket 3.9 22:15:40 47° ESE 22:16:21 51° ENE 22:20:45 10° N
Resurs 01 Rocket 4.4 22:17:32 10° WSW 22:19:46 14° W 22:22:01 10° WNW
Meteor 1-29 3.3 22:16:34 10° N 22:19:56 63° WNW 22:20:46 45° SW
H-2A R/B 4.5 22:20:29 11° NE 22:20:29 11° NE 22:21:30 10° NE
BREEZE-M DEB (TANK) 3.5 22:19:11 10° WNW 22:20:55 21° NNW 22:20:55 21° NNW
BREEZE-M DEB (TANK) 4.0 22:22:02 10° W 22:25:47 62° N 22:39:22 10° ENE
YAOGAN 11 4.2 22:27:10 55° ENE 22:27:15 55° ENE 22:31:28 10° N
Cosmos 1743 3.6 22:29:25 38° NE 22:29:25 38° NE 22:32:01 10° NNE
Cosmos 2263 Rocket 4.4 22:24:32 10° NW 22:28:29 20° W 22:32:25 10° SW
Aureole 3 Rocket 4.2 22:20:35 10° N 22:28:45 86° W 22:31:40 34° S
USA 245 3.5 22:31:48 68° SSE 22:32:21 82° ENE 22:36:21 10° N
SPOT 5 2.7 22:31:51 63° SE 22:32:28 74° ENE 22:37:04 10° N
NOSS 3-2 (C) 4.1 22:26:08 10° NNW 22:33:36 70° NE 22:36:46 40° ESE
Cosmos 1844 Rocket 2.7 22:29:31 10° NNW 22:35:14 80° WSW 22:36:49 49° S
Lacrosse 5 3.7 22:32:42 10° W 22:37:13 31° NNW 22:41:45 10° NE
Cosmos 2278 Rocket 2.7 22:31:55 10° NNW 22:37:21 44° ENE 22:38:10 41° E
NOSS 0 Rocket 4.2 22:38:09 46° ESE 22:38:09 46° ESE 22:43:57 10° NE
MetOp-B 4.4 22:37:45 39° S 22:39:42 65° WSW 22:45:02 10° NNW
Helios 1B rocket 4.1 22:36:50 10° N 22:40:33 33° WNW 22:44:14 10° SW
Cosmos 1626 Rocket 4.1 22:36:25 10° N 22:39:57 46° NE 22:39:57 46° NE
Cosmos 1892 Rocket 4.3 22:40:43 10° NNW 22:44:58 48° W 22:45:55 40° SW
Meteor 1-21 4.2 22:40:42 10° N 22:46:19 64° ENE 22:46:52 61° ESE
H-2A R/B 1.8 22:46:54 74° SSE 22:47:22 85° ENE 22:52:21 10° NNW
Cosmos 1992 Rocket 4.4 22:49:28 46° ENE 22:49:28 46° ENE 22:53:30 10° NNE
Landsat 7 4.1 22:48:56 55° NE 22:48:56 55° NE 22:53:18 10° N
ATLAS 2AS CENTAUR R/B 4.4 22:44:01 10° WSW 22:51:17 39° NW 22:58:51 10° NNE
Cosmos 2219 Rocket 2.0 22:50:02 46° SSW 22:51:48 86° ESE 22:57:30 10° NNE
Cosmos 968 Rocket 4.3 22:48:16 10° N 22:52:42 36° NE 22:52:42 36° NE
Cosmos 1745 Rocket 3.9 22:50:53 44° S 22:53:02 86° W 22:59:14 10° N
CENTAUR R/B 3.7 22:46:10 10° NNW 22:53:34 45° NE 22:56:35 33° E
Meteor 2-9 Rocket 4.4 22:59:11 54° ENE 22:59:11 54° ENE 23:04:10 10° NNE
Timation 1 Rocket 4.2 22:54:02 10° NNW 23:00:02 73° ENE 23:00:35 68° ESE
NOSS 3-4 (A) 3.3 22:56:26 17° SSW 23:01:21 84° ESE 23:07:51 10° NE
NOSS 3-4 (C) 3.3 22:57:10 22° SSW 23:01:27 84° SE 23:07:57 10° NE
Terra 2.4 23:04:46 49° NE 23:04:46 49° NE 23:08:39 10° N
SL-16 R/B 4.2 23:11:39 16° NE 23:11:39 16° NE 23:12:58 10° NE
Cosmos 1455 Rocket 4.3 23:09:49 35° WSW 23:10:40 38° WNW 23:14:51 10° N
Cosmos 1386 Rocket 4.5 23:11:06 56° SSW 23:12:28 79° W 23:18:49 10° N
COSMOS 2428 4.0 23:12:19 10° SW 23:17:38 39° WNW 23:23:00 10° NNE
GP-B 4.0 23:13:10 10° N 23:16:18 45° N 23:16:18 45° N
Cosmos 1844 4.4 23:14:51 10° NW 23:20:15 45° WSW 23:20:44 44° WSW
Cosmos 2333 Rocket 2.6 23:29:06 49° WSW 23:30:14 59° WNW 23:35:51 10° NNE
Cosmos 2237 Rocket 2.5 23:42:11 64° NNW 23:42:11 64° NNW 23:47:14 10° NNE
Cosmos 2369 Rocket 4.4 23:38:43 10° N 23:41:49 15° NE 23:42:42 14° NE
Cosmos 1980 4.2 23:48:45 57° WNW 23:48:46 57° WNW 23:54:23 10° NNE
H-2A R/B 3.9 23:57:37 30° NNW 23:57:37 30° NNW 23:59:55 10° NNW
